Time,TemperatureF,DewpointF,PressureIn,WindDirection,WindDirectionDegrees,WindSpeedMPH,WindSpeedGustMPH,Humidity,HourlyPrecipIn,Conditions,Clouds,dailyrainin,SoftwareType,DateUTC
2013-05-14 00:00:00,62.3,51.6,29.90,SSE,153,0.0,1.0,68,0.00,,CLR,0.00,VWS V14.01,2013-05-14 05:00:00,
2013-05-14 00:04:00,62.3,52.0,29.90,SSE,153,0.0,1.0,69,0.00,,CLR,0.00,VWS V14.01,2013-05-14 05:04:00,
2013-05-14 00:09:00,62.4,51.3,29.90,SSE,153,0.0,1.0,67,0.00,,CLR,0.00,VWS V14.01,2013-05-14 05:09:00,
2013-05-14 00:14:00,62.5,51.4,29.90,SSE,153,0.0,1.0,67,0.00,,CLR,0.00,VWS V14.01,2013-05-14 05:14:00,
2013-05-14 00:20:00,62.6,51.5,29.90,SSE,153,0.0,1.0,67,0.00,,CLR,0.00,VWS V14.01,2013-05-14 05:20:00,
2013-05-14 00:25:00,62.5,51.8,29.90,SSE,153,0.0,1.0,68,0.00,,CLR,0.00,VWS V14.01,2013-05-14 05:25:00,
2013-05-14 00:30:00,62.3,52.0,29.90,SSE,153,0.0,0.0,69,0.00,,CLR,0.00,VWS V14.01,2013-05-14 05:30:00,
2013-05-14 00:35:00,62.1,51.4,29.90,SSE,153,0.0,0.0,68,0.00,,CLR,0.00,VWS V14.01,2013-05-14 05:35:00,
2013-05-14 00:40:00,62.0,51.3,29.89,SSE,153,0.0,1.0,68,0.00,,CLR,0.00,VWS V14.01,2013-05-14 05:40:00,
2013-05-14 00:45:00,61.9,51.2,29.89,SSE,153,0.0,1.0,68,0.00,,CLR,0.00,VWS V14.01,2013-05-14 05:45:00,
2013-05-14 00:50:00,61.9,51.2,29.89,SSE,153,0.0,1.0,68,0.00,,CLR,0.00,VWS V14.01,2013-05-14 05:50:00,
2013-05-14 00:55:00,61.9,51.2,29.89,SSE,153,0.0,1.0,68,0.00,,CLR,0.00,VWS V14.01,2013-05-14 05:55:00,
2013-05-14 01:00:00,61.9,51.6,29.89,SSE,153,0.0,0.0,69,0.00,,CLR,0.00,VWS V14.01,2013-05-14 06:00:00,
2013-05-14 01:05:00,61.7,51.4,29.89,SSE,153,0.0,1.0,69,0.00,,CLR,0.00,VWS V14.01,2013-05-14 06:05:00,
2013-05-14 01:10:00,61.7,51.4,29.88,SSE,153,0.0,1.0,69,0.00,,CLR,0.00,VWS V14.01,2013-05-14 06:10:00,
2013-05-14 01:15:00,61.6,51.3,29.88,SSE,153,0.0,1.0,69,0.00,,CLR,0.00,VWS V14.01,2013-05-14 06:15:00,
2013-05-14 01:21:00,61.6,51.3,29.88,SSE,153,0.0,1.0,69,0.00,,CLR,0.00,VWS V14.01,2013-05-14 06:21:00,
2013-05-14 01:26:00,61.7,51.4,29.88,SSE,153,0.0,1.0,69,0.00,,CLR,0.00,VWS V14.01,2013-05-14 06:26:00,
2013-05-14 01:30:00,61.8,51.1,29.88,SSE,153,0.0,1.0,68,0.00,,CLR,0.00,VWS V14.01,2013-05-14 06:30:00,
2013-05-14 01:31:00,61.8,51.1,29.88,SSE,153,0.0,0.0,68,0.00,,CLR,0.00,VWS V14.01,2013-05-14 06:31:00,
2013-05-14 01:36:00,61.8,51.1,29.88,SSE,153,0.0,1.0,68,0.00,,CLR,0.00,VWS V14.01,2013-05-14 06:36:00,
2013-05-14 01:41:00,62.0,51.3,29.88,SSW,200,0.0,1.0,68,0.00,,CLR,0.00,VWS V14.01,2013-05-14 06:41:00,
2013-05-14 01:46:00,62.1,51.4,29.88,SSE,165,0.0,1.0,68,0.00,,CLR,0.00,VWS V14.01,2013-05-14 06:46:00,
2013-05-14 01:51:00,62.2,51.1,29.87,SSW,195,0.0,2.0,67,0.00,,CLR,0.00,VWS V14.01,2013-05-14 06:51:00,
2013-05-14 01:56:00,62.1,51.4,29.87,SSW,195,0.0,2.0,68,0.00,,CLR,0.00,VWS V14.01,2013-05-14 06:56:00,
2013-05-14 02:00:00,62.0,51.3,29.87,SSW,195,0.0,2.0,68,0.00,,CLR,0.00,VWS V14.01,2013-05-14 07:00:00,
2013-05-14 02:01:00,62.0,51.3,29.87,SSW,195,0.0,0.0,68,0.00,,CLR,0.00,VWS V14.01,2013-05-14 07:01:00,
2013-05-14 02:06:00,61.9,51.2,29.87,SSW,195,0.0,0.0,68,0.00,,CLR,0.00,VWS V14.01,2013-05-14 07:06:00,
2013-05-14 02:12:00,61.8,51.5,29.87,SSW,195,0.0,1.0,69,0.00,,CLR,0.00,VWS V14.01,2013-05-14 07:12:00,
2013-05-14 02:17:00,61.6,51.0,29.87,South,180,0.0,1.0,68,0.00,,CLR,0.00,VWS V14.01,2013-05-14 07:17:00,
2013-05-14 02:22:00,61.8,51.5,29.87,South,171,0.0,1.0,69,0.00,,CLR,0.00,VWS V14.01,2013-05-14 07:22:00,
2013-05-14 02:27:00,61.8,51.9,29.87,South,170,0.0,1.0,70,0.00,,CLR,0.00,VWS V14.01,2013-05-14 07:27:00,
2013-05-14 02:30:00,61.8,51.5,29.87,South,170,0.0,1.0,69,0.00,,CLR,0.00,VWS V14.01,2013-05-14 07:30:00,
2013-05-14 02:32:00,61.7,51.4,29.87,South,170,0.0,0.0,69,0.00,,CLR,0.00,VWS V14.01,2013-05-14 07:32:00,
2013-05-14 02:37:00,61.6,51.3,29.87,SSW,206,0.0,1.0,69,0.00,,CLR,0.00,VWS V14.01,2013-05-14 07:37:00,
2013-05-14 02:42:00,61.6,51.3,29.87,SSW,198,0.0,1.0,69,0.00,,CLR,0.00,VWS V14.01,2013-05-14 07:42:00,
2013-05-14 02:47:00,61.6,51.0,29.87,South,169,0.0,1.0,68,0.00,,CLR,0.00,VWS V14.01,2013-05-14 07:47:00,
2013-05-14 02:52:00,61.6,51.0,29.86,South,178,0.0,1.0,68,0.00,,CLR,0.00,VWS V14.01,2013-05-14 07:52:00,
2013-05-14 02:57:00,61.7,51.4,29.86,South,178,0.0,2.0,69,0.00,,CLR,0.00,VWS V14.01,2013-05-14 07:57:00,
2013-05-14 03:00:00,61.6,51.3,29.86,South,178,0.0,2.0,69,0.00,,CLR,0.00,VWS V14.01,2013-05-14 08:00:00,
2013-05-14 03:02:00,61.6,51.0,29.86,South,178,0.0,1.0,68,0.00,,CLR,0.00,VWS V14.01,2013-05-14 08:02:00,
2013-05-14 03:07:00,61.8,50.7,29.86,South,186,0.0,2.0,67,0.00,,CLR,0.00,VWS V14.01,2013-05-14 08:07:00,
2013-05-14 03:13:00,62.2,51.1,29.86,SW,223,0.0,3.0,67,0.00,,CLR,0.00,VWS V14.01,2013-05-14 08:13:00,
2013-05-14 03:18:00,62.4,51.3,29.86,South,186,0.0,3.0,67,0.00,,CLR,0.00,VWS V14.01,2013-05-14 08:18:00,
2013-05-14 03:23:00,62.5,51.0,29.86,SW,217,0.0,3.0,66,0.00,,CLR,0.00,VWS V14.01,2013-05-14 08:23:00,
2013-05-14 03:28:00,62.9,50.5,29.86,South,177,0.0,3.0,64,0.00,,CLR,0.00,VWS V14.01,2013-05-14 08:28:00,
2013-05-14 03:30:00,63.0,50.7,29.86,South,184,0.0,3.0,64,0.00,,CLR,0.00,VWS V14.01,2013-05-14 08:30:00,
2013-05-14 03:33:00,63.3,50.5,29.86,South,182,1.0,1.0,63,0.00,,CLR,0.00,VWS V14.01,2013-05-14 08:33:00,
2013-05-14 03:38:00,63.7,50.9,29.86,South,181,0.0,1.0,63,0.00,,CLR,0.00,VWS V14.01,2013-05-14 08:38:00,
2013-05-14 03:43:00,63.8,51.0,29.86,South,179,0.0,1.0,63,0.00,,CLR,0.00,VWS V14.01,2013-05-14 08:43:00,
2013-05-14 03:48:00,64.0,50.7,29.86,SW,224,0.0,3.0,62,0.00,,CLR,0.00,VWS V14.01,2013-05-14 08:48:00,
2013-05-14 03:53:00,64.3,50.6,29.86,SE,140,0.0,3.0,61,0.00,,CLR,0.00,VWS V14.01,2013-05-14 08:53:00,
2013-05-14 03:58:00,64.7,50.5,29.86,SSE,157,0.0,3.0,60,0.00,,CLR,0.00,VWS V14.01,2013-05-14 08:58:00,
2013-05-14 04:00:00,64.7,51.0,29.86,SSW,202,0.0,3.0,61,0.00,,CLR,0.00,VWS V14.01,2013-05-14 09:00:00,
2013-05-14 04:03:00,65.0,50.3,29.86,WSW,250,0.0,1.0,59,0.00,,CLR,0.00,VWS V14.01,2013-05-14 09:03:00,
2013-05-14 04:09:00,65.2,50.5,29.86,South,175,0.0,2.0,59,0.00,,CLR,0.00,VWS V14.01,2013-05-14 09:09:00,
2013-05-14 04:14:00,65.3,50.6,29.86,SSE,167,0.0,2.0,59,0.00,,CLR,0.00,VWS V14.01,2013-05-14 09:14:00,
2013-05-14 04:19:00,65.3,50.6,29.86,SSW,201,2.0,3.0,59,0.00,,CLR,0.00,VWS V14.01,2013-05-14 09:19:00,
2013-05-14 04:24:00,65.1,50.9,29.86,WSW,246,0.0,3.0,60,0.00,,CLR,0.00,VWS V14.01,2013-05-14 09:24:00,
2013-05-14 04:29:00,65.0,50.8,29.86,SSE,165,0.0,4.0,60,0.00,,CLR,0.00,VWS V14.01,2013-05-14 09:29:00,
2013-05-14 04:30:00,65.0,50.8,29.86,West,265,0.0,4.0,60,0.00,,CLR,0.00,VWS V14.01,2013-05-14 09:30:00,
2013-05-14 04:34:00,64.9,50.7,29.86,SSW,202,0.0,3.0,60,0.00,,CLR,0.00,VWS V14.01,2013-05-14 09:34:00,
2013-05-14 04:39:00,64.9,50.7,29.86,South,189,0.0,5.0,60,0.00,,CLR,0.00,VWS V14.01,2013-05-14 09:39:00,
2013-05-14 04:44:00,64.9,50.7,29.86,South,180,0.0,5.0,60,0.00,,CLR,0.00,VWS V14.01,2013-05-14 09:44:00,
2013-05-14 04:49:00,64.7,51.0,29.85,WSW,254,0.0,5.0,61,0.00,,CLR,0.00,VWS V14.01,2013-05-14 09:49:00,
2013-05-14 04:54:00,64.5,50.3,29.85,WSW,248,0.0,5.0,60,0.00,,CLR,0.00,VWS V14.01,2013-05-14 09:54:00,
2013-05-14 04:59:00,64.4,50.7,29.85,SSW,200,0.0,5.0,61,0.00,,CLR,0.00,VWS V14.01,2013-05-14 09:59:00,
2013-05-14 05:00:00,64.4,50.2,29.85,SSW,200,0.0,5.0,60,0.00,,CLR,0.00,VWS V14.01,2013-05-14 10:00:00,
2013-05-14 05:04:00,64.4,50.7,29.85,South,186,1.0,1.0,61,0.00,,CLR,0.00,VWS V14.01,2013-05-14 10:04:00,
2013-05-14 05:10:00,64.5,50.8,29.85,SSE,153,0.0,2.0,61,0.00,,CLR,0.00,VWS V14.01,2013-05-14 10:10:00,
2013-05-14 05:15:00,64.5,51.2,29.85,SE,143,0.0,3.0,62,0.00,,CLR,0.00,VWS V14.01,2013-05-14 10:15:00,
2013-05-14 05:20:00,64.5,50.3,29.85,SSE,166,2.0,3.0,60,0.00,,CLR,0.00,VWS V14.01,2013-05-14 10:20:00,
2013-05-14 05:25:00,64.5,50.3,29.86,SW,236,0.0,3.0,60,0.00,,CLR,0.00,VWS V14.01,2013-05-14 10:25:00,
2013-05-14 05:30:00,64.4,50.2,29.86,West,273,0.0,1.0,60,0.00,,CLR,0.00,VWS V14.01,2013-05-14 10:30:00,
2013-05-14 05:35:00,64.2,50.5,29.86,SSW,192,0.0,1.0,61,0.00,,CLR,0.00,VWS V14.01,2013-05-14 10:35:00,
2013-05-14 05:40:00,64.0,50.3,29.86,WNW,286,0.0,1.0,61,0.00,,CLR,0.00,VWS V14.01,2013-05-14 10:40:00,
2013-05-14 05:45:00,63.8,50.1,29.86,WSW,243,0.0,1.0,61,0.00,,CLR,0.00,VWS V14.01,2013-05-14 10:45:00,
2013-05-14 05:50:00,63.7,50.5,29.86,WSW,254,0.0,1.0,62,0.00,,CLR,0.00,VWS V14.01,2013-05-14 10:50:00,
2013-05-14 05:55:00,63.4,50.6,29.86,SW,215,0.0,2.0,63,0.00,,CLR,0.00,VWS V14.01,2013-05-14 10:55:00,
2013-05-14 06:00:00,63.1,50.3,29.86,South,176,0.0,1.0,63,0.00,,CLR,0.00,VWS V14.01,2013-05-14 11:00:00,
2013-05-14 06:05:00,63.0,50.7,29.86,SSW,204,0.0,1.0,64,0.00,,CLR,0.00,VWS V14.01,2013-05-14 11:05:00,
2013-05-14 06:10:00,62.8,50.5,29.86,SSW,212,0.0,1.0,64,0.00,,CLR,0.00,VWS V14.01,2013-05-14 11:10:00,
2013-05-14 06:15:00,62.6,50.7,29.86,West,263,0.0,2.0,65,0.00,,CLR,0.00,VWS V14.01,2013-05-14 11:15:00,
2013-05-14 06:20:00,62.5,50.6,29.87,WSW,243,0.0,2.0,65,0.00,,CLR,0.00,VWS V14.01,2013-05-14 11:20:00,
2013-05-14 06:26:00,62.5,50.6,29.87,WSW,258,0.0,5.0,65,0.00,,CLR,0.00,VWS V14.01,2013-05-14 11:26:00,
2013-05-14 06:30:00,62.6,50.7,29.87,SW,231,0.0,5.0,65,0.00,,CLR,0.00,VWS V14.01,2013-05-14 11:30:00,
2013-05-14 06:31:00,62.6,50.3,29.87,West,265,0.0,1.0,64,0.00,,CLR,0.00,VWS V14.01,2013-05-14 11:31:00,
2013-05-14 06:36:00,62.9,50.5,29.87,SW,223,0.0,3.0,64,0.00,,CLR,0.00,VWS V14.01,2013-05-14 11:36:00,
2013-05-14 06:41:00,62.9,50.5,29.87,WSW,248,0.0,3.0,64,0.00,,CLR,0.00,VWS V14.01,2013-05-14 11:41:00,
2013-05-14 06:46:00,63.0,50.7,29.87,WSW,253,0.0,3.0,64,0.00,,CLR,0.00,VWS V14.01,2013-05-14 11:46:00,
2013-05-14 06:51:00,63.1,50.7,29.87,WSW,238,0.0,3.0,64,0.00,,CLR,0.00,VWS V14.01,2013-05-14 11:51:00,
2013-05-14 06:56:00,63.2,51.2,29.87,West,267,0.0,3.0,65,0.00,,CLR,0.00,VWS V14.01,2013-05-14 11:56:00,
2013-05-14 07:00:00,63.2,50.8,29.87,West,267,0.0,3.0,64,0.00,,CLR,0.00,VWS V14.01,2013-05-14 12:00:00,
2013-05-14 07:01:00,63.3,51.3,29.87,SSW,208,0.0,1.0,65,0.00,,CLR,0.00,VWS V14.01,2013-05-14 12:01:00,
2013-05-14 07:06:00,63.4,51.4,29.87,West,265,0.0,3.0,65,0.00,,CLR,0.00,VWS V14.01,2013-05-14 12:06:00,
2013-05-14 07:11:00,63.7,50.9,29.87,WSW,248,0.0,3.0,63,0.00,,CLR,0.00,VWS V14.01,2013-05-14 12:11:00,
2013-05-14 07:16:00,64.3,52.3,29.87,SW,225,0.0,3.0,65,0.00,,CLR,0.00,VWS V14.01,2013-05-14 12:16:00,
2013-05-14 07:22:00,64.9,52.0,29.87,SW,225,0.0,3.0,63,0.00,,CLR,0.00,VWS V14.01,2013-05-14 12:22:00,
2013-05-14 07:27:00,65.4,52.9,29.87,South,184,0.0,5.0,64,0.00,,CLR,0.00,VWS V14.01,2013-05-14 12:27:00,
2013-05-14 07:30:00,65.7,52.3,29.87,WSW,243,0.0,5.0,62,0.00,,CLR,0.00,VWS V14.01,2013-05-14 12:30:00,
2013-05-14 07:32:00,66.0,51.7,29.87,SSW,200,0.0,1.0,60,0.00,,CLR,0.00,VWS V14.01,2013-05-14 12:32:00,
2013-05-14 07:37:00,66.5,52.7,29.88,South,188,0.0,2.0,61,0.00,,CLR,0.00,VWS V14.01,2013-05-14 12:37:00,
2013-05-14 07:42:00,66.9,52.6,29.87,South,188,0.0,2.0,60,0.00,,CLR,0.00,VWS V14.01,2013-05-14 12:42:00,
2013-05-14 07:47:00,67.2,53.8,29.87,West,261,0.0,2.0,62,0.00,,CLR,0.00,VWS V14.01,2013-05-14 12:47:00,
2013-05-14 07:52:00,67.4,53.5,29.87,SW,234,0.0,3.0,61,0.00,,CLR,0.00,VWS V14.01,2013-05-14 12:52:00,
2013-05-14 07:57:00,67.5,53.1,29.88,SW,236,0.0,3.0,60,0.00,,CLR,0.00,VWS V14.01,2013-05-14 12:57:00,
2013-05-14 08:00:00,67.6,52.8,29.87,SSW,194,0.0,3.0,59,0.00,,CLR,0.00,VWS V14.01,2013-05-14 13:00:00,
2013-05-14 08:02:00,67.7,52.4,29.87,WSW,250,0.0,2.0,58,0.00,,CLR,0.00,VWS V14.01,2013-05-14 13:02:00,
2013-05-14 08:07:00,67.9,53.1,29.88,WSW,248,0.0,3.0,59,0.00,,CLR,0.00,VWS V14.01,2013-05-14 13:07:00,
2013-05-14 08:12:00,68.2,52.4,29.88,WSW,240,0.0,3.0,57,0.00,,CLR,0.00,VWS V14.01,2013-05-14 13:12:00,
2013-05-14 08:17:00,68.5,52.2,29.88,WSW,250,3.0,4.0,56,0.00,,CLR,0.00,VWS V14.01,2013-05-14 13:17:00,
2013-05-14 08:22:00,68.9,52.6,29.88,WSW,254,5.0,5.0,56,0.00,,CLR,0.00,VWS V14.01,2013-05-14 13:22:00,
2013-05-14 08:28:00,69.2,52.4,29.88,West,263,0.0,5.0,55,0.00,,CLR,0.00,VWS V14.01,2013-05-14 13:28:00,
2013-05-14 08:30:00,69.3,52.0,29.88,WSW,250,4.0,5.0,54,0.00,,CLR,0.00,VWS V14.01,2013-05-14 13:30:00,
2013-05-14 08:33:00,69.5,53.1,29.88,SSE,166,0.0,4.0,56,0.00,,CLR,0.00,VWS V14.01,2013-05-14 13:33:00,
2013-05-14 08:38:00,69.9,53.0,29.88,West,277,0.0,4.0,55,0.00,,CLR,0.00,VWS V14.01,2013-05-14 13:38:00,
2013-05-14 08:43:00,70.2,53.3,29.88,West,279,1.0,4.0,55,0.00,,CLR,0.00,VWS V14.01,2013-05-14 13:43:00,
2013-05-14 08:48:00,70.7,54.2,29.88,SSW,205,1.0,4.0,56,0.00,,CLR,0.00,VWS V14.01,2013-05-14 13:48:00,
2013-05-14 08:53:00,71.1,54.1,29.88,West,259,1.0,4.0,55,0.00,,CLR,0.00,VWS V14.01,2013-05-14 13:53:00,
2013-05-14 08:58:00,71.6,54.1,29.88,West,267,1.0,4.0,54,0.00,,CLR,0.00,VWS V14.01,2013-05-14 13:58:00,
2013-05-14 09:00:00,71.7,54.2,29.88,West,267,0.0,4.0,54,0.00,,CLR,0.00,VWS V14.01,2013-05-14 14:00:00,
2013-05-14 09:03:00,72.1,54.6,29.88,NW,314,0.0,6.0,54,0.00,,CLR,0.00,VWS V14.01,2013-05-14 14:03:00,
2013-05-14 09:08:00,72.5,54.4,29.88,West,267,0.0,7.0,53,0.00,,CLR,0.00,VWS V14.01,2013-05-14 14:08:00,
2013-05-14 09:13:00,73.1,55.5,29.88,SSW,209,0.0,7.0,54,0.00,,CLR,0.00,VWS V14.01,2013-05-14 14:13:00,
2013-05-14 09:18:00,73.7,55.5,29.88,WSW,254,0.0,7.0,53,0.00,,CLR,0.00,VWS V14.01,2013-05-14 14:18:00,
2013-05-14 09:23:00,74.3,55.0,29.88,West,266,0.0,7.0,51,0.00,,CLR,0.00,VWS V14.01,2013-05-14 14:23:00,
2013-05-14 09:29:00,74.8,56.0,29.88,WNW,283,1.0,7.0,52,0.00,,CLR,0.00,VWS V14.01,2013-05-14 14:29:00,
2013-05-14 09:30:00,74.9,56.1,29.88,SSW,205,1.0,7.0,52,0.00,,CLR,0.00,VWS V14.01,2013-05-14 14:30:00,
2013-05-14 09:34:00,75.3,56.5,29.88,SSW,211,1.0,4.0,52,0.00,,CLR,0.00,VWS V14.01,2013-05-14 14:34:00,
2013-05-14 09:39:00,75.8,56.4,29.88,WSW,239,0.0,4.0,51,0.00,,CLR,0.00,VWS V14.01,2013-05-14 14:39:00,
2013-05-14 09:44:00,76.2,55.1,29.88,ESE,121,1.0,4.0,48,0.00,,CLR,0.00,VWS V14.01,2013-05-14 14:44:00,
2013-05-14 09:49:00,76.7,56.7,29.88,South,176,0.0,4.0,50,0.00,,CLR,0.00,VWS V14.01,2013-05-14 14:49:00,
2013-05-14 09:54:00,77.2,56.0,29.88,West,259,0.0,4.0,48,0.00,,CLR,0.00,VWS V14.01,2013-05-14 14:54:00,
2013-05-14 09:59:00,77.6,56.4,29.88,West,265,0.0,4.0,48,0.00,,CLR,0.00,VWS V14.01,2013-05-14 14:59:00,
2013-05-14 10:00:00,77.6,56.4,29.88,West,270,0.0,4.0,48,0.00,,CLR,0.00,VWS V14.01,2013-05-14 15:00:00,
2013-05-14 10:04:00,78.0,57.9,29.88,WSW,239,0.0,1.0,50,0.00,,CLR,0.00,VWS V14.01,2013-05-14 15:04:00,
2013-05-14 10:09:00,78.4,56.5,29.88,West,275,0.0,6.0,47,0.00,,CLR,0.00,VWS V14.01,2013-05-14 15:09:00,
2013-05-14 10:14:00,78.6,57.9,29.88,South,188,0.0,6.0,49,0.00,,CLR,0.00,VWS V14.01,2013-05-14 15:14:00,
2013-05-14 10:19:00,78.9,57.0,29.88,SW,227,4.0,6.0,47,0.00,,CLR,0.00,VWS V14.01,2013-05-14 15:19:00,
2013-05-14 10:24:00,79.2,57.2,29.88,WSW,248,2.0,6.0,47,0.00,,CLR,0.00,VWS V14.01,2013-05-14 15:24:00,
2013-05-14 10:29:00,79.5,58.1,29.88,South,171,0.0,6.0,48,0.00,,CLR,0.00,VWS V14.01,2013-05-14 15:29:00,
2013-05-14 10:30:00,79.5,58.1,29.88,South,171,0.0,6.0,48,0.00,,CLR,0.00,VWS V14.01,2013-05-14 15:30:00,
2013-05-14 10:35:00,79.9,56.7,29.88,WSW,257,0.0,5.0,45,0.00,,CLR,0.00,VWS V14.01,2013-05-14 15:35:00,
2013-05-14 10:40:00,80.4,59.5,29.88,West,261,0.0,5.0,49,0.00,,CLR,0.00,VWS V14.01,2013-05-14 15:40:00,
2013-05-14 10:45:00,81.0,57.7,29.88,West,281,0.0,5.0,45,0.00,,CLR,0.00,VWS V14.01,2013-05-14 15:45:00,
2013-05-14 10:50:00,81.5,57.5,29.88,East,94,1.0,5.0,44,0.00,,CLR,0.00,VWS V14.01,2013-05-14 15:50:00,
2013-05-14 10:55:00,82.2,57.5,29.88,SW,231,1.0,5.0,43,0.00,,CLR,0.00,VWS V14.01,2013-05-14 15:55:00,
2013-05-14 11:00:00,82.9,57.5,29.88,NNW,328,1.0,3.0,42,0.00,,CLR,0.00,VWS V14.01,2013-05-14 16:00:00,
2013-05-14 11:05:00,83.3,59.1,29.88,SW,224,0.0,3.0,44,0.00,,CLR,0.00,VWS V14.01,2013-05-14 16:05:00,
2013-05-14 11:10:00,83.9,57.7,29.88,NNW,327,0.0,3.0,41,0.00,,CLR,0.00,VWS V14.01,2013-05-14 16:10:00,
2013-05-14 11:15:00,84.4,57.5,29.88,WNW,298,6.0,6.0,40,0.00,,CLR,0.00,VWS V14.01,2013-05-14 16:15:00,
2013-05-14 11:20:00,84.9,57.2,29.88,SSE,152,0.0,6.0,39,0.00,,CLR,0.00,VWS V14.01,2013-05-14 16:20:00,
2013-05-14 11:25:00,85.4,56.2,29.88,SW,234,2.0,8.0,37,0.00,,CLR,0.00,VWS V14.01,2013-05-14 16:25:00,
2013-05-14 11:30:00,85.9,55.1,29.88,WNW,296,0.0,3.0,35,0.00,,CLR,0.00,VWS V14.01,2013-05-14 16:30:00,
2013-05-14 11:36:00,86.3,55.5,29.88,WNW,284,1.0,4.0,35,0.00,,CLR,0.00,VWS V14.01,2013-05-14 16:36:00,
2013-05-14 11:41:00,86.7,58.8,29.88,NW,311,4.0,6.0,39,0.00,,CLR,0.00,VWS V14.01,2013-05-14 16:41:00,
2013-05-14 11:46:00,87.2,57.8,29.88,NNW,332,1.0,6.0,37,0.00,,CLR,0.00,VWS V14.01,2013-05-14 16:46:00,
2013-05-14 11:51:00,87.9,59.2,29.87,NW,306,0.0,6.0,38,0.00,,CLR,0.00,VWS V14.01,2013-05-14 16:51:00,
2013-05-14 11:56:00,88.4,55.7,29.88,NW,307,4.0,6.0,33,0.00,,CLR,0.00,VWS V14.01,2013-05-14 16:56:00,
2013-05-14 12:00:00,88.3,55.6,29.88,West,277,0.0,6.0,33,0.00,,CLR,0.00,VWS V14.01,2013-05-14 17:00:00,
2013-05-14 12:01:00,88.3,54.7,29.87,North,5,0.0,3.0,32,0.00,,CLR,0.00,VWS V14.01,2013-05-14 17:01:00,
2013-05-14 12:06:00,88.5,54.9,29.87,West,268,0.0,4.0,32,0.00,,CLR,0.00,VWS V14.01,2013-05-14 17:06:00,
2013-05-14 12:11:00,88.8,55.2,29.87,West,259,0.0,4.0,32,0.00,,CLR,0.00,VWS V14.01,2013-05-14 17:11:00,
2013-05-14 12:16:00,88.8,54.3,29.87,West,263,0.0,7.0,31,0.00,,CLR,0.00,VWS V14.01,2013-05-14 17:16:00,
2013-05-14 12:21:00,89.0,55.3,29.87,West,273,0.0,8.0,32,0.00,,CLR,0.00,VWS V14.01,2013-05-14 17:21:00,
2013-05-14 12:26:00,89.3,55.6,29.87,West,267,2.0,8.0,32,0.00,,CLR,0.00,VWS V14.01,2013-05-14 17:26:00,
2013-05-14 12:30:00,89.4,53.0,29.87,West,279,1.0,8.0,29,0.00,,CLR,0.00,VWS V14.01,2013-05-14 17:30:00,
2013-05-14 12:31:00,89.5,54.9,29.86,SSW,205,3.0,4.0,31,0.00,,CLR,0.00,VWS V14.01,2013-05-14 17:31:00,
2013-05-14 12:36:00,89.6,54.1,29.86,South,190,0.0,7.0,30,0.00,,CLR,0.00,VWS V14.01,2013-05-14 17:36:00,
2013-05-14 12:42:00,89.7,54.2,29.86,SE,146,0.0,7.0,30,0.00,,CLR,0.00,VWS V14.01,2013-05-14 17:42:00,
2013-05-14 12:47:00,89.9,54.3,29.86,NW,309,0.0,7.0,30,0.00,,CLR,0.00,VWS V14.01,2013-05-14 17:47:00,
2013-05-14 12:52:00,90.0,55.3,29.86,SW,226,1.0,7.0,31,0.00,,CLR,0.00,VWS V14.01,2013-05-14 17:52:00,
2013-05-14 12:57:00,90.2,54.6,29.85,West,278,1.0,7.0,30,0.00,,CLR,0.00,VWS V14.01,2013-05-14 17:57:00,
2013-05-14 13:00:00,90.3,54.7,29.85,WSW,240,0.0,7.0,30,0.00,,CLR,0.00,VWS V14.01,2013-05-14 18:00:00,
2013-05-14 13:02:00,90.4,55.7,29.85,SW,222,0.0,1.0,31,0.00,,CLR,0.00,VWS V14.01,2013-05-14 18:02:00,
2013-05-14 13:07:00,90.7,55.0,29.85,NNW,338,2.0,4.0,30,0.00,,CLR,0.00,VWS V14.01,2013-05-14 18:07:00,
2013-05-14 13:12:00,90.9,55.2,29.85,West,277,1.0,4.0,30,0.00,,CLR,0.00,VWS V14.01,2013-05-14 18:12:00,
2013-05-14 13:17:00,91.0,56.2,29.85,WSW,250,2.0,4.0,31,0.00,,CLR,0.00,VWS V14.01,2013-05-14 18:17:00,
2013-05-14 13:22:00,91.0,55.3,29.84,South,177,1.0,4.0,30,0.00,,CLR,0.00,VWS V14.01,2013-05-14 18:22:00,
2013-05-14 13:27:00,90.9,54.3,29.84,SW,216,0.0,5.0,29,0.00,,CLR,0.00,VWS V14.01,2013-05-14 18:27:00,
2013-05-14 13:30:00,90.9,55.2,29.84,West,269,0.0,5.0,30,0.00,,CLR,0.00,VWS V14.01,2013-05-14 18:30:00,
2013-05-14 13:32:00,90.8,54.2,29.84,NNW,344,1.0,4.0,29,0.00,,CLR,0.00,VWS V14.01,2013-05-14 18:32:00,
2013-05-14 13:37:00,90.9,54.3,29.84,WNW,290,1.0,5.0,29,0.00,,CLR,0.00,VWS V14.01,2013-05-14 18:37:00,
2013-05-14 13:42:00,91.0,55.3,29.84,West,265,1.0,5.0,30,0.00,,CLR,0.00,VWS V14.01,2013-05-14 18:42:00,
2013-05-14 13:48:00,91.0,54.4,29.83,West,281,1.0,5.0,29,0.00,,CLR,0.00,VWS V14.01,2013-05-14 18:48:00,
2013-05-14 13:53:00,91.0,54.4,29.83,WSW,248,4.0,5.0,29,0.00,,CLR,0.00,VWS V14.01,2013-05-14 18:53:00,
2013-05-14 13:58:00,90.9,56.1,29.83,SSE,147,0.0,5.0,31,0.00,,CLR,0.00,VWS V14.01,2013-05-14 18:58:00,
2013-05-14 14:00:00,90.9,56.1,29.83,West,277,2.0,5.0,31,0.00,,CLR,0.00,VWS V14.01,2013-05-14 19:00:00,
2013-05-14 14:03:00,90.8,54.2,29.83,East,80,0.0,6.0,29,0.00,,CLR,0.00,VWS V14.01,2013-05-14 19:03:00,
2013-05-14 14:08:00,90.7,51.1,29.83,NNE,22,3.0,6.0,26,0.00,,CLR,0.00,VWS V14.01,2013-05-14 19:08:00,
2013-05-14 14:13:00,90.4,53.8,29.83,East,94,0.0,6.0,29,0.00,,CLR,0.00,VWS V14.01,2013-05-14 19:13:00,
2013-05-14 14:18:00,90.2,52.7,29.83,SSW,200,2.0,7.0,28,0.00,,CLR,0.00,VWS V14.01,2013-05-14 19:18:00,
2013-05-14 14:23:00,90.2,54.6,29.83,SW,221,0.0,7.0,30,0.00,,CLR,0.00,VWS V14.01,2013-05-14 19:23:00,
2013-05-14 14:28:00,90.2,55.5,29.83,WSW,238,6.0,7.0,31,0.00,,CLR,0.00,VWS V14.01,2013-05-14 19:28:00,
2013-05-14 14:30:00,90.2,52.7,29.83,South,173,1.0,7.0,28,0.00,,CLR,0.00,VWS V14.01,2013-05-14 19:30:00,
2013-05-14 14:33:00,90.2,52.7,29.82,WNW,284,1.0,4.0,28,0.00,,CLR,0.00,VWS V14.01,2013-05-14 19:33:00,
2013-05-14 14:38:00,90.2,53.7,29.82,West,259,0.0,6.0,29,0.00,,CLR,0.00,VWS V14.01,2013-05-14 19:38:00,
2013-05-14 14:44:00,90.2,54.6,29.82,SW,214,0.0,8.0,30,0.00,,CLR,0.00,VWS V14.01,2013-05-14 19:44:00,
2013-05-14 14:49:00,90.3,52.8,29.82,West,260,1.0,8.0,28,0.00,,CLR,0.00,VWS V14.01,2013-05-14 19:49:00,
2013-05-14 14:54:00,90.3,55.6,29.82,West,265,0.0,8.0,31,0.00,,CLR,0.00,VWS V14.01,2013-05-14 19:54:00,
2013-05-14 14:59:00,90.4,53.8,29.82,NW,308,0.0,8.0,29,0.00,,CLR,0.00,VWS V14.01,2013-05-14 19:59:00,
2013-05-14 15:00:00,90.5,54.9,29.82,WSW,248,1.0,8.0,30,0.00,,CLR,0.00,VWS V14.01,2013-05-14 20:00:00,
2013-05-14 15:04:00,90.4,53.8,29.82,SW,218,3.0,6.0,29,0.00,,CLR,0.00,VWS V14.01,2013-05-14 20:04:00,
2013-05-14 15:09:00,90.3,53.8,29.82,SSW,211,0.0,6.0,29,0.00,,CLR,0.00,VWS V14.01,2013-05-14 20:09:00,
2013-05-14 15:14:00,90.3,52.8,29.82,NW,317,2.0,6.0,28,0.00,,CLR,0.00,VWS V14.01,2013-05-14 20:14:00,
2013-05-14 15:19:00,90.3,54.7,29.82,SW,234,0.0,6.0,30,0.00,,CLR,0.00,VWS V14.01,2013-05-14 20:19:00,
2013-05-14 15:24:00,90.5,52.0,29.81,WSW,238,2.0,10.0,27,0.00,,CLR,0.00,VWS V14.01,2013-05-14 20:24:00,
2013-05-14 15:29:00,90.7,54.1,29.81,West,275,2.0,10.0,29,0.00,,CLR,0.00,VWS V14.01,2013-05-14 20:29:00,
2013-05-14 15:30:00,90.7,54.1,29.81,NNW,342,3.0,10.0,29,0.00,,CLR,0.00,VWS V14.01,2013-05-14 20:30:00,
2013-05-14 15:34:00,90.9,54.3,29.81,SW,235,1.0,3.0,29,0.00,,CLR,0.00,VWS V14.01,2013-05-14 20:34:00,
2013-05-14 15:39:00,90.9,55.2,29.81,West,278,1.0,4.0,30,0.00,,CLR,0.00,VWS V14.01,2013-05-14 20:39:00,
2013-05-14 15:45:00,90.8,53.2,29.81,SW,234,0.0,7.0,28,0.00,,CLR,0.00,VWS V14.01,2013-05-14 20:45:00,
2013-05-14 15:50:00,90.6,55.0,29.81,SW,227,1.0,7.0,30,0.00,,CLR,0.00,VWS V14.01,2013-05-14 20:50:00,
2013-05-14 15:55:00,90.4,51.9,29.81,SSE,160,1.0,7.0,27,0.00,,CLR,0.00,VWS V14.01,2013-05-14 20:55:00,
2013-05-14 16:00:00,90.4,54.8,29.81,SW,219,1.0,1.0,30,0.00,,CLR,0.00,VWS V14.01,2013-05-14 21:00:00,
2013-05-14 16:05:00,90.3,51.8,29.80,SSW,201,1.0,3.0,27,0.00,,CLR,0.00,VWS V14.01,2013-05-14 21:05:00,
2013-05-14 16:10:00,90.2,53.7,29.80,NNW,327,1.0,3.0,29,0.00,,CLR,0.00,VWS V14.01,2013-05-14 21:10:00,
2013-05-14 16:15:00,90.0,53.5,29.80,SSW,196,0.0,3.0,29,0.00,,CLR,0.00,VWS V14.01,2013-05-14 21:15:00,
2013-05-14 16:20:00,89.8,52.4,29.80,WNW,289,2.0,4.0,28,0.00,,CLR,0.00,VWS V14.01,2013-05-14 21:20:00,
2013-05-14 16:25:00,89.7,55.1,29.80,West,259,1.0,4.0,31,0.00,,CLR,0.00,VWS V14.01,2013-05-14 21:25:00,
2013-05-14 16:30:00,89.5,53.1,29.80,West,281,0.0,2.0,29,0.00,,CLR,0.00,VWS V14.01,2013-05-14 21:30:00,
2013-05-14 16:35:00,89.5,54.0,29.80,WNW,290,0.0,4.0,30,0.00,,CLR,0.00,VWS V14.01,2013-05-14 21:35:00,
2013-05-14 16:40:00,89.4,53.0,29.80,West,264,2.0,5.0,29,0.00,,CLR,0.00,VWS V14.01,2013-05-14 21:40:00,
2013-05-14 16:45:00,89.3,52.9,29.80,West,270,0.0,5.0,29,0.00,,CLR,0.00,VWS V14.01,2013-05-14 21:45:00,
2013-05-14 16:50:00,89.2,53.8,29.80,ENE,73,0.0,5.0,30,0.00,,CLR,0.00,VWS V14.01,2013-05-14 21:50:00,
2013-05-14 16:56:00,89.0,54.5,29.80,NW,306,1.0,5.0,31,0.00,,CLR,0.00,VWS V14.01,2013-05-14 21:56:00,
2013-05-14 17:00:00,88.9,53.5,29.80,SSE,152,0.0,5.0,30,0.00,,CLR,0.00,VWS V14.01,2013-05-14 22:00:00,
2013-05-14 17:01:00,88.9,53.5,29.80,ESE,121,0.0,1.0,30,0.00,,CLR,0.00,VWS V14.01,2013-05-14 22:01:00,
2013-05-14 17:06:00,88.7,52.4,29.80,West,275,0.0,3.0,29,0.00,,CLR,0.00,VWS V14.01,2013-05-14 22:06:00,
2013-05-14 17:11:00,88.7,55.1,29.80,WSW,255,0.0,3.0,32,0.00,,CLR,0.00,VWS V14.01,2013-05-14 22:11:00,
2013-05-14 17:16:00,88.6,54.1,29.79,SW,226,0.0,3.0,31,0.00,,CLR,0.00,VWS V14.01,2013-05-14 22:16:00,
2013-05-14 17:21:00,88.3,54.7,29.80,SW,219,1.0,4.0,32,0.00,,CLR,0.00,VWS V14.01,2013-05-14 22:21:00,
2013-05-14 17:26:00,88.2,54.7,29.80,South,186,0.0,4.0,32,0.00,,CLR,0.00,VWS V14.01,2013-05-14 22:26:00,
2013-05-14 17:30:00,88.1,52.8,29.80,SW,217,0.0,4.0,30,0.00,,CLR,0.00,VWS V14.01,2013-05-14 22:30:00,
2013-05-14 17:31:00,88.1,51.9,29.80,South,171,1.0,1.0,29,0.00,,CLR,0.00,VWS V14.01,2013-05-14 22:31:00,
2013-05-14 17:36:00,87.8,54.3,29.80,SSW,207,2.0,6.0,32,0.00,,CLR,0.00,VWS V14.01,2013-05-14 22:36:00,
2013-05-14 17:41:00,87.4,52.2,29.79,West,261,0.0,6.0,30,0.00,,CLR,0.00,VWS V14.01,2013-05-14 22:41:00,
2013-05-14 17:46:00,87.2,54.6,29.79,SSW,192,0.0,6.0,33,0.00,,CLR,0.00,VWS V14.01,2013-05-14 22:46:00,
2013-05-14 17:52:00,87.0,53.6,29.79,SSE,167,0.0,6.0,32,0.00,,CLR,0.00,VWS V14.01,2013-05-14 22:52:00,
2013-05-14 17:57:00,86.7,53.3,29.79,SSW,201,1.0,6.0,32,0.00,,CLR,0.00,VWS V14.01,2013-05-14 22:57:00,
2013-05-14 18:00:00,86.6,53.3,29.79,South,186,0.0,6.0,32,0.00,,CLR,0.00,VWS V14.01,2013-05-14 23:00:00,
2013-05-14 18:02:00,86.5,53.2,29.79,South,186,0.0,0.0,32,0.00,,CLR,0.00,VWS V14.01,2013-05-14 23:02:00,
2013-05-14 18:07:00,86.3,53.0,29.79,South,178,2.0,3.0,32,0.00,,CLR,0.00,VWS V14.01,2013-05-14 23:07:00,
2013-05-14 18:12:00,86.1,52.0,29.79,SW,231,0.0,3.0,31,0.00,,CLR,0.00,VWS V14.01,2013-05-14 23:12:00,
2013-05-14 18:17:00,85.9,53.5,29.80,SSW,206,0.0,4.0,33,0.00,,CLR,0.00,VWS V14.01,2013-05-14 23:17:00,
2013-05-14 18:22:00,85.6,52.4,29.79,SW,230,0.0,8.0,32,0.00,,CLR,0.00,VWS V14.01,2013-05-14 23:22:00,
2013-05-14 18:27:00,85.4,53.0,29.79,SSW,205,0.0,8.0,33,0.00,,CLR,0.00,VWS V14.01,2013-05-14 23:27:00,
2013-05-14 18:30:00,85.3,53.0,29.79,South,178,1.0,8.0,33,0.00,,CLR,0.00,VWS V14.01,2013-05-14 23:30:00,
2013-05-14 18:32:00,85.1,52.8,29.79,SSW,197,1.0,3.0,33,0.00,,CLR,0.00,VWS V14.01,2013-05-14 23:32:00,
2013-05-14 18:37:00,84.9,51.8,29.79,WSW,239,1.0,3.0,32,0.00,,CLR,0.00,VWS V14.01,2013-05-14 23:37:00,
2013-05-14 18:42:00,84.7,53.3,29.79,SE,138,0.0,4.0,34,0.00,,CLR,0.00,VWS V14.01,2013-05-14 23:42:00,
2013-05-14 18:47:00,84.4,53.0,29.79,SSW,194,0.0,4.0,34,0.00,,CLR,0.00,VWS V14.01,2013-05-14 23:47:00,
2013-05-14 18:52:00,84.0,54.2,29.79,SSW,200,0.0,5.0,36,0.00,,CLR,0.00,VWS V14.01,2013-05-14 23:52:00,
2013-05-14 18:58:00,83.7,53.2,29.79,South,178,1.0,8.0,35,0.00,,CLR,0.00,VWS V14.01,2013-05-14 23:58:00,
2013-05-14 19:00:00,83.6,53.8,29.79,South,176,0.0,8.0,36,0.00,,CLR,0.00,VWS V14.01,2013-05-15 00:00:00,
2013-05-14 19:03:00,83.5,53.8,29.79,SSW,201,0.0,3.0,36,0.00,,CLR,0.00,VWS V14.01,2013-05-15 00:03:00,
2013-05-14 19:08:00,83.3,53.6,29.79,South,182,0.0,6.0,36,0.00,,CLR,0.00,VWS V14.01,2013-05-15 00:08:00,
2013-05-14 19:13:00,83.0,52.6,29.79,SSE,155,0.0,6.0,35,0.00,,CLR,0.00,VWS V14.01,2013-05-15 00:13:00,
2013-05-14 19:18:00,82.8,53.2,29.79,WSW,246,0.0,6.0,36,0.00,,CLR,0.00,VWS V14.01,2013-05-15 00:18:00,
2013-05-14 19:23:00,82.4,54.3,29.79,WSW,252,0.0,6.0,38,0.00,,CLR,0.00,VWS V14.01,2013-05-15 00:23:00,
2013-05-14 19:28:00,82.0,53.9,29.79,SW,227,0.0,6.0,38,0.00,,CLR,0.00,VWS V14.01,2013-05-15 00:28:00,
2013-05-14 19:30:00,81.9,53.8,29.79,East,100,0.0,6.0,38,0.00,,CLR,0.00,VWS V14.01,2013-05-15 00:30:00,
2013-05-14 19:33:00,81.6,53.6,29.79,South,178,0.0,1.0,38,0.00,,CLR,0.00,VWS V14.01,2013-05-15 00:33:00,
2013-05-14 19:38:00,81.1,53.8,29.79,South,190,0.0,1.0,39,0.00,,CLR,0.00,VWS V14.01,2013-05-15 00:38:00,
2013-05-14 19:43:00,80.7,53.5,29.79,WSW,238,0.0,1.0,39,0.00,,CLR,0.00,VWS V14.01,2013-05-15 00:43:00,
2013-05-14 19:48:00,80.3,54.5,29.79,SW,226,0.0,1.0,41,0.00,,CLR,0.00,VWS V14.01,2013-05-15 00:48:00,
2013-05-14 19:53:00,79.9,54.1,29.79,South,174,0.0,1.0,41,0.00,,CLR,0.00,VWS V14.01,2013-05-15 00:53:00,
2013-05-14 19:59:00,79.5,54.4,29.79,West,263,1.0,1.0,42,0.00,,CLR,0.00,VWS V14.01,2013-05-15 00:59:00,
2013-05-14 20:00:00,79.4,55.0,29.79,West,263,0.0,1.0,43,0.00,,CLR,0.00,VWS V14.01,2013-05-15 01:00:00,
2013-05-14 20:04:00,79.1,54.7,29.79,SSW,193,0.0,1.0,43,0.00,,CLR,0.00,VWS V14.01,2013-05-15 01:04:00,
2013-05-14 20:09:00,78.7,53.7,29.79,West,268,0.0,1.0,42,0.00,,CLR,0.00,VWS V14.01,2013-05-15 01:09:00,
2013-05-14 20:14:00,78.2,53.9,29.79,SSW,204,1.0,1.0,43,0.00,,CLR,0.00,VWS V14.01,2013-05-15 01:14:00,
2013-05-14 20:19:00,77.9,54.3,29.79,WSW,251,0.0,1.0,44,0.00,,CLR,0.00,VWS V14.01,2013-05-15 01:19:00,
2013-05-14 20:24:00,77.5,53.9,29.79,WSW,247,0.0,1.0,44,0.00,,CLR,0.00,VWS V14.01,2013-05-15 01:24:00,
2013-05-14 20:29:00,77.1,53.5,29.79,SW,215,0.0,1.0,44,0.00,,CLR,0.00,VWS V14.01,2013-05-15 01:29:00,
2013-05-14 20:30:00,77.1,53.5,29.79,SW,215,0.0,1.0,44,0.00,,CLR,0.00,VWS V14.01,2013-05-15 01:30:00,
2013-05-14 20:34:00,76.9,54.6,29.79,South,182,0.0,1.0,46,0.00,,CLR,0.00,VWS V14.01,2013-05-15 01:34:00,
2013-05-14 20:39:00,76.6,54.3,29.79,WSW,254,0.0,1.0,46,0.00,,CLR,0.00,VWS V14.01,2013-05-15 01:39:00,
2013-05-14 20:44:00,76.4,54.7,29.80,SSW,195,0.0,1.0,47,0.00,,CLR,0.00,VWS V14.01,2013-05-15 01:44:00,
2013-05-14 20:49:00,76.1,54.4,29.80,SW,218,0.0,2.0,47,0.00,,CLR,0.00,VWS V14.01,2013-05-15 01:49:00,
2013-05-14 20:54:00,76.0,54.3,29.80,SW,218,0.0,2.0,47,0.00,,CLR,0.00,VWS V14.01,2013-05-15 01:54:00,
2013-05-14 21:00:00,75.9,54.2,29.80,SW,234,0.0,2.0,47,0.00,,CLR,0.00,VWS V14.01,2013-05-15 02:00:00,
2013-05-14 21:05:00,75.7,54.6,29.80,SSW,207,0.0,1.0,48,0.00,,CLR,0.00,VWS V14.01,2013-05-15 02:05:00,
2013-05-14 21:10:00,75.5,55.0,29.80,South,191,0.0,1.0,49,0.00,,CLR,0.00,VWS V14.01,2013-05-15 02:10:00,
2013-05-14 21:15:00,75.4,54.9,29.80,South,191,0.0,1.0,49,0.00,,CLR,0.00,VWS V14.01,2013-05-15 02:15:00,
2013-05-14 21:20:00,75.2,54.2,29.80,South,191,0.0,1.0,48,0.00,,CLR,0.00,VWS V14.01,2013-05-15 02:20:00,
2013-05-14 21:25:00,74.9,54.5,29.80,SSW,205,0.0,1.0,49,0.00,,CLR,0.00,VWS V14.01,2013-05-15 02:25:00,
2013-05-14 21:30:00,74.7,54.3,29.81,West,267,0.0,1.0,49,0.00,,CLR,0.00,VWS V14.01,2013-05-15 02:30:00,
2013-05-14 21:35:00,74.5,55.2,29.81,SE,138,0.0,1.0,51,0.00,,CLR,0.00,VWS V14.01,2013-05-15 02:35:00,
2013-05-14 21:40:00,74.3,55.0,29.81,SSE,155,0.0,1.0,51,0.00,,CLR,0.00,VWS V14.01,2013-05-15 02:40:00,
2013-05-14 21:45:00,74.1,55.9,29.81,SSE,155,0.0,1.0,53,0.00,,CLR,0.00,VWS V14.01,2013-05-15 02:45:00,
2013-05-14 21:50:00,73.9,55.2,29.81,SSE,159,0.0,1.0,52,0.00,,CLR,0.00,VWS V14.01,2013-05-15 02:50:00,
2013-05-14 21:55:00,73.7,55.0,29.81,South,181,0.0,1.0,52,0.00,,CLR,0.00,VWS V14.01,2013-05-15 02:55:00,
2013-05-14 22:00:00,73.6,55.4,29.81,SE,130,0.0,1.0,53,0.00,,CLR,0.00,VWS V14.01,2013-05-15 03:00:00,
2013-05-14 22:01:00,73.6,54.9,29.81,SSW,205,0.0,1.0,52,0.00,,CLR,0.00,VWS V14.01,2013-05-15 03:01:00,
2013-05-14 22:06:00,73.5,54.8,29.82,SW,230,0.0,4.0,52,0.00,,CLR,0.00,VWS V14.01,2013-05-15 03:06:00,
2013-05-14 22:11:00,73.5,54.8,29.82,South,178,0.0,4.0,52,0.00,,CLR,0.00,VWS V14.01,2013-05-15 03:11:00,
2013-05-14 22:16:00,73.6,54.9,29.82,SW,228,0.0,4.0,52,0.00,,CLR,0.00,VWS V14.01,2013-05-15 03:16:00,
2013-05-14 22:21:00,73.6,56.0,29.82,South,190,0.0,4.0,54,0.00,,CLR,0.00,VWS V14.01,2013-05-15 03:21:00,
2013-05-14 22:26:00,73.5,54.8,29.82,South,186,0.0,4.0,52,0.00,,CLR,0.00,VWS V14.01,2013-05-15 03:26:00,
2013-05-14 22:30:00,73.3,55.2,29.82,SSW,208,1.0,4.0,53,0.00,,CLR,0.00,VWS V14.01,2013-05-15 03:30:00,
2013-05-14 22:31:00,73.3,55.2,29.82,SSW,211,0.0,1.0,53,0.00,,CLR,0.00,VWS V14.01,2013-05-15 03:31:00,
2013-05-14 22:36:00,73.0,54.9,29.82,South,186,0.0,1.0,53,0.00,,CLR,0.00,VWS V14.01,2013-05-15 03:36:00,
2013-05-14 22:41:00,72.8,55.2,29.82,SW,223,1.0,3.0,54,0.00,,CLR,0.00,VWS V14.01,2013-05-15 03:41:00,
2013-05-14 22:46:00,72.6,55.5,29.82,SW,220,0.0,3.0,55,0.00,,CLR,0.00,VWS V14.01,2013-05-15 03:46:00,
2013-05-14 22:51:00,72.4,55.8,29.82,SW,226,0.0,3.0,56,0.00,,CLR,0.00,VWS V14.01,2013-05-15 03:51:00,
2013-05-14 22:56:00,72.4,56.3,29.82,SW,224,0.0,3.0,57,0.00,,CLR,0.00,VWS V14.01,2013-05-15 03:56:00,
2013-05-14 23:00:00,72.3,55.7,29.82,South,184,0.0,3.0,56,0.00,,CLR,0.00,VWS V14.01,2013-05-15 04:00:00,
2013-05-14 23:01:00,72.3,55.7,29.82,South,182,2.0,2.0,56,0.00,,CLR,0.00,VWS V14.01,2013-05-15 04:01:00,
2013-05-14 23:03:00,72.4,56.8,29.82,South,182,0.0,2.0,58,0.00,,CLR,0.00,VWS V14.01,2013-05-15 04:03:00,
2013-05-14 23:07:00,72.4,56.3,29.82,SW,217,0.0,3.0,57,0.00,,CLR,0.00,VWS V14.01,2013-05-15 04:07:00,
2013-05-14 23:12:00,72.4,56.8,29.82,South,188,7.0,7.0,58,0.00,,CLR,0.00,VWS V14.01,2013-05-15 04:12:00,
2013-05-14 23:17:00,72.3,56.7,29.82,SSW,198,0.0,7.0,58,0.00,,CLR,0.00,VWS V14.01,2013-05-15 04:17:00,
2013-05-14 23:22:00,72.2,56.6,29.82,South,188,1.0,7.0,58,0.00,,CLR,0.00,VWS V14.01,2013-05-15 04:22:00,
2013-05-14 23:27:00,72.2,56.6,29.82,South,186,0.0,7.0,58,0.00,,CLR,0.00,VWS V14.01,2013-05-15 04:27:00,
2013-05-14 23:30:00,72.3,57.2,29.82,South,188,0.0,7.0,59,0.00,,CLR,0.00,VWS V14.01,2013-05-15 04:30:00,
2013-05-14 23:32:00,72.4,57.3,29.82,South,171,0.0,3.0,59,0.00,,CLR,0.00,VWS V14.01,2013-05-15 04:32:00,
2013-05-14 23:37:00,72.3,57.2,29.82,WNW,284,0.0,4.0,59,0.00,,CLR,0.00,VWS V14.01,2013-05-15 04:37:00,
2013-05-14 23:42:00,72.2,56.6,29.82,SSE,156,0.0,4.0,58,0.00,,CLR,0.00,VWS V14.01,2013-05-15 04:42:00,
2013-05-14 23:47:00,72.1,56.5,29.82,South,183,0.0,4.0,58,0.00,,CLR,0.00,VWS V14.01,2013-05-15 04:47:00,
2013-05-14 23:53:00,72.0,56.9,29.83,West,266,0.0,4.0,59,0.00,,CLR,0.00,VWS V14.01,2013-05-15 04:53:00,
2013-05-14 23:58:00,71.9,55.9,29.83,SW,221,1.0,6.0,57,0.00,,CLR,0.00,VWS V14.01,2013-05-15 04:58:00,